CAPE
47 0 548 467 382 414 511 336 382 452 443 344 345 303 296 310 322 579 545 333 225 304 374 234 121 31 8 8 4 104 192 220 197 129 72 48 59 182 216 1 0 6 74
107 26 612 495 449 615 665 389 552 377 400 379 307 238 444 325 538 557 396 356 312 32 21 4 24 107 29 6 7 40 4 62 37 22 4 0 19 79 136 37 18 5 1
102 39 385 540 463 850 514 549 347 335 749 519 405 572 669 568 518 354 140 45 27 13 2 1 1 12 11 0 2 0 0 27 0 0 11 24 43 91 113 95 210 210 183
268 87 188 595 505 1030 479 406 799 722 689 603 615 622 560 366 166 18 0 0 0 0 1 2 2 0 0 0 0 0 0 16 0 0 32 28 33 104 172 143 212 141 82
390 169 170 536 651 1085 672 606 885 732 691 454 517 388 261 100 15 1 0 0 0 0 0 0 0 0 0 0 0 12 43 0 0 2 0 1 18 49 98 86 77 44 19
560 324 288 586 511 1381 818 607 905 778 610 381 289 209 77 4 2 1 0 0 0 0 0 1 1 0 0 0 18 42 12 0 0 0 13 43 43 47 57 16 11 17 13
679 445 373 656 702 1154 993 592 769 689 649 336 200 63 9 3 2 1 2 0 0 0 1 2 2 0 0 13 13 12 0 0 0 22 88 45 49 46 33 14 5 2 3
787 459 397 679 782 1071 1064 723 499 720 659 349 89 5 5 2 2 2 2 1 1 0 2 7 9 2 10 6 0 0 0 0 59 53 42 47 21 2 1 1 1 3 1
847 574 346 722 756 998 981 599 673 693 505 148 6 3 4 2 4 2 3 2 1 2 4 14 8 13 8 6 0 0 0 10 27 32 27 14 3 2 3 1 2 0 0
867 703 530 691 615 1056 937 199 809 605 199 10 1 2 0 0 4 2 2 1 2 5 7 16 5 10 11 1 0 0 1 12 22 32 13 5 0 1 5 2 2 1 0
8 772 599 547 435 640 595 179 584 288 6 0 1 0 0 0 2 1 0 1 6 0 29 21 28 27 2 0 0 0 2 8 10 23 1 0 0 8 4 5 4 5 6
0 0 131 506 426 466 459 575 436 22 0 1 2 0 0 0 0 0 0 3 4 15 28 37 17 0 2 0 0 0 4 17 19 23 4 0 0 5 9 6 4 8 13
0 0 0 69 561 617 592 390 31 0 0 4 1 0 0 0 0 0 1 5 4 29 22 14 0 2 5 4 1 0 2 5 9 11 4 0 7 11 10 7 3 6 18
0 0 0 2 0 582 206 32 36 0 5 1 1 0 0 0 0 0 0 3 7 9 16 0 0 0 0 0 0 1 2 3 1 0 1 4 9 11 7 9 5 6 10
0 0 0 0 0 181 103 24 1 0 0 0 0 0 0 0 0 0 0 0 1 4 0 0 0 0 0 0 1 1 0 0 0 0 4 6 7 5 5 8 8 5 4
0 0 0 0 0 0 63 4 0 0 0 0 0 0 0 0 0 0 0 0 0 0 0 0 0 0 0 1 1 0 0 0 0 0 1 0 0 0 4 7 9 8 8
0 0 0 1 8 0 0 2 0 0 0 0 0 0 0 0 0 0 0 0 0 0 0 0 0 0 0 0 0 0 0 0 0 0 0 0 0 0 0 2 2 5 7
0 0 0 0 4 0 0 0 0 0 0 0 0 0 0 0 0 0 0 0 0 0 0 0 0 0 0 0 0 0 0 0 0 0 0 0 0 0 0 0 0 0 0
13 0 0 2 2 0 0 0 0 0 0 0 0 0 0 0 0 0 0 0 0 0 0 0 0 0 0 0 0 0 0 0 0 0 0 0 0 0 0 0 0 0 0
1 1 0 2 0 0 0 0 0 0 0 0 0 0 0 0 0 0 0 0 0 0 0 0 0 0 0 0 0 0 0 0 0 0 0 0 0 0 0 0 0 0 0
2 3 1 2 4 0 0 0 0 0 0 0 0 0 0 0 0 0 0 0 0 0 0 0 0 0 0 0 0 0 0 0 0 0 0 0 0 0 0 0 0 0 0
3 4 4 4 4 3 1 0 0 0 0 0 0 0 0 0 0 0 0 0 0 0 0 0 0 0 0 0 0 0 0 0 0 0 0 0 0 0 0 0 0 0 0
2 1 1 2 3 2 2 0 0 0 0 0 0 0 0 0 0 0 0 0 0 0 0 0 0 0 0 0 0 0 0 0 0 0 0 0 0 0 0 0 0 0 0
21 6 2 2 1 0 0 0 0 0 0 0 0 0 0 0 0 0 0 0 0 0 0 0 0 0 0 0 0 0 0 0 0 0 0 0 0 0 0 0 0 0 0
74 25 1 3 0 2 0 0 0 0 0 0 0 0 0 0 0 0 0 0 0 0 0 0 0 0 0 0 0 0 0 0 0 0 0 0 0 0 0 0 0 0 0
80 31 1 1 1 1 2 3 0 0 0 0 0 0 0 0 0 0 0 0 0 0 0 0 0 0 0 0 0 0 0 0 0 0 0 0 0 0 0 0 0 0 0
CIN
-403 -0 -253 -246 -233 -205 -165 -201 -163 -125 -113 -149 -144 -155 -138 -123 -114 -39 -31 -76 -116 -84 -58 -115 -193 -188 -0 -0 -0 -252 -204 -196 -212 -252 -291 -307 -284 -181 -158 -29 -0 -39 -239
-305 -439 -208 -226 -203 -140 -117 -173 -104 -137 -123 -122 -155 -179 -100 -121 -66 -45 -63 -69 -81 -261 -270 -26 -277 -221 -167 -0 -0 -330 -32 -311 -336 -351 -31 -6 -282 -227 -173 -250 -224 -111 -3
-296 -355 -191 -184 -192 -93 -126 -107 -153 -138 -45 -72 -101 -69 -57 -65 -71 -102 -165 -233 -213 -245 -0 -0 -0 -1 -0 -0 -0 -0 -0 -351 -0 -0 -8 -0 -239 -221 -181 -189 -110 -120 -138
-190 -274 -228 -117 -147 -53 -122 -118 -33 -41 -55 -65 -57 -48 -63 -117 -202 -324 -0 -0 -0 -0 -0 -0 -0 -0 -0 -0 -0 -0 -0 -103 -0 -0 -1 -0 -0 -207 -151 -155 -125 -165 -217
-137 -216 -211 -94 -73 -18 -66 -56 -16 -26 -47 -96 -68 -97 -145 -254 -378 -0 -0 -0 -0 -0 -0 -0 -0 -0 -0 -0 -0 -4 -311 -0 -0 -0 -0 -0 -0 -166 -241 -244 -250 -278 -0
-76 -138 -161 -71 -63 -0 -24 -41 -4 -9 -37 -114 -130 -167 -283 -236 -0 -0 -0 -0 -0 -0 -0 -0 -0 -0 -0 -0 -0 -291 -9 -0 -0 -0 -0 -353 -377 -355 -376 -1 -0 -0 -0
-26 -79 -116 -42 -11 -0 -1 -26 -5 -17 -12 -108 -167 -269 -250 -0 -0 -0 -0 -0 -0 -0 -0 -0 -0 -0 -0 -0 -0 -8 -0 -0 -0 -86 -271 -313 -356 -205 -0 -0 -5 -1 -0
-12 -42 -81 -29 -2 -0 -0 -4 -20 -9 -8 -88 -207 -12 -0 -0 -0 -0 -0 -0 -0 -0 -0 -0 -0 -0 -0 -0 -0 -0 -0 -0 -151 -327 -188 -194 -0 -0 -5 -0 -0 -0 -0
-1 -21 -60 -12 -2 -0 -1 -9 -4 -2 -24 -127 -153 -0 -0 -0 -0 -0 -0 -0 -0 -0 -0 -1 -1 -0 -0 -0 -0 -0 -0 -5 -4 -2 -1 -0 -1 -0 -0 -0 -0 -0 -0
-0 -1 -1 -1 -0 -0 -0 -39 -0 -3 -79 -252 -0 -0 -0 -0 -1 -0 -0 -0 -0 -0 -1 -1 -1 -1 -0 -0 -0 -0 -8 -14 -9 -0 -4 -1 -0 -0 -1 -0 -0 -0 -0
-20 -0 -1 -0 -2 -0 -0 -20 -0 -37 -174 -0 -1 -0 -0 -0 -0 -0 -0 -0 -1 -0 -2 -6 -2 -3 -0 -0 -0 -0 -4 -4 -2 -0 -0 -0 -0 -0 -0 -0 -0 -0 -0
-0 -0 -41 -3 -2 -1 -0 -0 -4 -113 -0 -1 -0 -0 -0 -0 -0 -0 -0 -1 -0 -2 -1 -0 -5 -0 -0 -0 -0 -0 -0 -0 -1 -1 -2 -0 -0 -0 -0 -0 -0 -0 -0
-0 -0 -0 -25 -0 -1 -0 -1 -83 -4 -0 -1 -0 -0 -0 -0 -0 -0 -0 -0 -1 -0 -1 -2 -0 -0 -0 -1 -1 -0 -1 -1 -1 -1 -0 -0 -0 -1 -0 -0 -0 -0 -0
-0 -0 -0 -2 -0 -0 -4 -79 -115 -0 -2 -1 -0 -0 -0 -0 -0 -0 -0 -0 -0 -0 -0 -0 -0 -0 -0 -0 -0 -0 -0 -1 -0 -0 -0 -2 -1 -0 -0 -0 -0 -0 -0
-0 -0 -0 -0 -0 -8 -13 -102 -32 -0 -0 -0 -0 -0 -0 -0 -0 -0 -0 -0 -0 -1 -0 -0 -0 -0 -0 -0 -0 -1 -0 -0 -0 -0 -0 -4 -3 -2 -0 -0 -1 -0 -0
-0 -0 -0 -0 -0 -0 -13 -85 -65 -0 -0 -0 -0 -0 -0 -0 -0 -0 -0 -0 -0 -0 -0 -0 -0 -0 -0 -1 -1 -0 -0 -0 -0 -0 -0 -0 -0 -0 -0 -0 -0 -0 -0
-0 -0 -0 -17 -23 -0 -0 -2 -0 -0 -0 -0 -0 -0 -0 -0 -0 -0 -0 -0 -0 -0 -0 -0 -0 -0 -0 -0 -0 -0 -0 -0 -0 -0 -0 -0 -0 -0 -0 -0 -0 -0 -0
-0 -0 -0 -0 -27 -0 -0 -0 -0 -0 -0 -0 -0 -0 -0 -0 -0 -0 -0 -0 -0 -0 -0 -0 -0 -0 -0 -0 -0 -0 -0 -0 -0 -0 -0 -0 -0 -0 -0 -0 -0 -0 -0
-102 -0 -0 -5 -52 -0 -0 -0 -0 -0 -0 -0 -0 -0 -0 -0 -0 -0 -0 -0 -0 -0 -0 -0 -0 -0 -0 -0 -0 -0 -0 -0 -0 -0 -0 -0 -0 -0 -0 -0 -0 -0 -0
-0 -0 -0 -0 -0 -0 -0 -0 -0 -0 -0 -0 -0 -0 -0 -0 -0 -0 -0 -0 -0 -0 -0 -0 -0 -0 -0 -0 -0 -0 -0 -0 -0 -0 -0 -0 -0 -0 -0 -0 -0 -0 -0
-0 -0 -0 -0 -0 -0 -0 -0 -0 -0 -0 -0 -0 -0 -0 -0 -0 -0 -0 -0 -0 -0 -0 -0 -0 -0 -0 -0 -0 -0 -0 -0 -0 -0 -0 -0 -0 -0 -0 -0 -0 -0 -0
-0 -0 -0 -0 -0 -0 -0 -0 -0 -0 -0 -0 -0 -0 -0 -0 -0 -0 -0 -0 -0 -0 -0 -0 -0 -0 -0 -0 -0 -0 -0 -0 -0 -0 -0 -0 -0 -0 -0 -0 -0 -0 -0
-0 -0 -0 -0 -0 -0 -0 -0 -0 -0 -0 -0 -0 -0 -0 -0 -0 -0 -0 -0 -0 -0 -0 -0 -0 -0 -0 -0 -0 -0 -0 -0 -0 -0 -0 -0 -0 -0 -0 -0 -0 -0 -0
-12 -0 -0 -0 -0 -0 -0 -0 -0 -0 -0 -0 -0 -0 -0 -0 -0 -0 -0 -0 -0 -0 -0 -0 -0 -0 -0 -0 -0 -0 -0 -0 -0 -0 -0 -0 -0 -0 -0 -0 -0 -0 -0
-17 -33 -0 -0 -0 -0 -0 -0 -0 -0 -0 -0 -0 -0 -0 -0 -0 -0 -0 -0 -0 -0 -0 -0 -0 -0 -0 -0 -0 -0 -0 -0 -0 -0 -0 -0 -0 -0 -0 -0 -0 -0 -0
-6 -19 -0 -0 -0 -0 -0 -0 -0 -0 -0 -0 -0 -0 -0 -0 -0 -0 -0 -0 -0 -0 -0 -0 -0 -0 -0 -0 -0 -0 -0 -0 -0 -0 -0 -0 -0 -0 -0 -0 -0 -0 -0
Wind_Speed
15 3 6 7 6 6 6 6 6 5 5 7 10 12 13 15 17 21 17 7 13 11 9 10 8 7 9 9 10 11 13 13 16 19 21 21 21 20 19 20 23 21 21
18 6 7 7 7 6 6 6 6 6 5 5 8 11 13 13 12 12 10 8 5 5 4 5 5 6 8 9 9 11 12 13 16 18 20 21 20 19 18 20 19 20 20
20 10 9 9 8 8 7 6 7 6 6 5 6 9 7 5 4 6 6 4 4 6 8 7 7 6 6 9 9 10 12 14 16 20 23 19 19 20 19 20 20 20 21
21 13 11 12 10 9 9 8 7 7 7 5 4 3 2 2 2 4 4 5 6 7 7 8 8 8 9 10 11 12 15 16 17 20 18 18 18 18 19 20 21 21 20
25 15 14 14 14 11 10 9 8 8 8 7 6 4 4 4 3 1 1 3 5 7 8 9 9 10 11 13 14 16 16 15 15 16 15 16 17 17 18 18 19 18 19
26 19 15 16 16 14 12 11 10 9 8 8 7 6 6 6 6 3 1 3 5 7 8 10 10 11 12 13 12 14 13 14 16 15 16 15 17 18 17 16 17 18 19
29 23 19 20 19 18 14 13 13 12 9 9 8 7 7 8 7 4 2 2 4 5 7 7 9 11 12 12 11 11 13 14 15 15 16 18 18 18 18 17 17 17 18
32 28 24 22 24 21 16 16 15 13 11 10 9 8 8 9 8 5 3 0 2 4 5 7 9 11 12 12 12 12 13 14 16 17 18 17 18 18 17 18 18 18 18
31 31 29 25 26 26 19 18 18 14 13 12 11 10 9 10 9 7 4 3 1 3 3 9 10 12 13 13 14 14 13 15 18 18 17 17 17 17 18 17 18 18 19
33 31 31 29 28 28 24 21 21 16 14 14 13 10 10 11 11 8 6 4 2 1 2 6 8 11 13 14 14 15 16 17 18 17 16 17 18 18 18 18 19 19 19
28 35 33 32 30 30 27 25 21 17 16 15 14 11 10 13 12 9 9 6 4 3 2 5 7 8 10 10 12 13 15 16 16 16 17 17 18 18 18 19 19 20 20
31 32 37 35 33 31 29 27 22 20 18 18 17 15 15 13 13 12 9 7 5 5 4 4 4 6 10 9 9 10 11 13 14 15 16 17 18 18 18 19 19 19 20
30 31 18 30 37 33 30 27 24 21 21 20 19 18 16 14 13 11 9 8 7 5 4 3 3 1 3 6 7 7 10 11 13 15 16 17 18 17 18 18 18 18 19
32 33 29 21 26 35 33 30 25 22 22 22 21 19 18 16 15 13 12 10 8 8 6 6 6 2 1 4 7 9 9 10 11 13 15 17 18 18 18 19 19 18 19
35 33 30 28 28 35 38 33 30 24 23 22 22 21 20 18 16 15 13 12 11 9 8 8 6 3 1 3 6 7 8 9 10 12 14 15 17 17 18 18 18 18 18
34 29 27 27 26 32 38 36 32 27 24 23 22 22 21 19 17 16 14 13 11 10 9 8 7 4 2 1 3 5 6 7 9 10 12 13 14 16 16 17 17 18 18
31 28 24 33 31 20 27 37 34 29 25 24 23 22 21 20 18 17 15 14 12 11 9 8 7 6 4 3 1 3 4 6 7 8 10 11 12 14 15 16 16 17 18
28 29 28 28 25 23 20 26 28 26 24 23 22 22 21 19 18 17 16 15 13 11 10 9 7 6 5 4 2 2 3 5 6 7 8 9 11 12 14 15 16 16 17
28 29 27 22 25 20 16 12 18 21 21 23 21 21 22 20 19 18 17 15 13 12 11 10 9 7 6 5 4 4 4 5 6 7 8 9 11 12 13 14 15 16 17
23 25 25 23 21 19 13 13 13 19 20 21 22 21 21 22 20 18 17 15 14 13 12 11 10 9 8 6 6 6 7 7 8 8 8 10 11 12 12 13 14 15 17
19 19 23 25 19 17 16 20 19 23 25 22 23 22 21 22 21 20 18 16 15 15 14 12 11 10 9 8 7 9 10 11 11 11 11 11 11 12 13 14 15 15 16
16 15 16 20 22 21 17 15 12 19 27 25 24 23 22 22 21 20 19 17 16 15 14 13 12 12 12 10 12 10 13 14 14 13 13 13 13 13 14 14 15 16 17
18 15 15 13 16 20 13 9 11 9 25 26 27 23 23 21 22 21 20 18 16 15 16 15 14 14 14 14 14 16 16 17 13 15 13 13 12 14 15 16 16 16 18
16 16 15 13 14 9 21 14 4 9 20 30 28 23 24 22 22 21 20 18 17 16 16 16 15 15 14 15 16 17 17 16 17 18 17 16 15 16 15 17 18 16 18
12 14 13 10 9 8 16 16 8 6 11 26 28 26 25 23 23 22 21 19 19 18 17 16 15 16 16 16 17 18 18 17 17 18 20 20 21 19 17 17 17 18 19
15 14 9 7 8 6 6 12 16 21 10 11 20 23 26 25 23 22 20 19 18 17 17 17 16 17 17 18 18 17 19 19 19 22 24 20 19 19 18 15 17 19 19
Wind_Direction
298 266 172 162 163 160 152 148 140 143 141 114 105 104 103 104 106 113 98 71 84 71 57 54 37 31 32 24 29 28 34 37 47 54 59 59 58 50 41 50 78 50 47
295 262 205 185 175 175 167 157 156 147 160 135 111 107 106 103 97 93 85 83 65 35 359 9 345 11 23 33 30 38 39 39 49 55 61 58 54 48 37 52 43 50 50
294 265 213 208 191 188 187 177 165 167 170 152 125 112 106 101 95 89 87 71 39 35 41 37 35 355 6 32 34 34 43 46 54 71 94 59 48 49 42 44 53 50 54
291 267 230 224 215 200 195 188 187 173 198 191 166 146 149 184 142 101 84 64 48 41 38 43 47 49 53 51 55 54 67 61 61 82 63 54 48 46 45 44 47 46 39
283 270 244 223 225 212 205 202 209 194 198 210 219 209 200 205 195 157 66 23 34 41 48 57 61 65 69 76 70 74 75 63 55 48 41 46 51 49 46 41 39 34 31
278 265 248 227 225 227 210 209 214 200 208 218 223 217 216 221 227 234 315 43 46 55 62 67 69 70 77 76 68 72 63 58 61 45 47 34 53 52 44 33 27 26 23
269 260 252 233 229 231 211 213 217 218 211 217 219 215 221 227 231 237 263 44 56 60 65 60 69 74 77 72 64 58 62 59 53 52 51 56 51 43 33 25 19 20 19
263 256 251 234 231 231 219 219 217 213 210 212 219 222 227 231 233 234 239 143 61 69 59 67 80 81 76 69 65 62 62 67 66 63 59 51 47 35 27 19 18 17 15
260 251 248 235 231 232 224 223 224 213 214 220 224 228 230 233 233 232 231 233 179 89 75 85 83 83 79 74 70 66 58 63 70 69 58 50 39 31 25 18 21 24 21
254 248 244 235 231 230 229 223 225 217 217 221 226 228 230 233 233 233 233 232 191 172 120 91 86 86 81 78 74 72 73 73 71 61 47 46 40 33 28 30 31 33 32
262 246 243 234 230 229 230 227 221 217 218 222 227 225 226 234 232 231 240 228 215 209 171 105 94 83 78 70 72 71 75 75 66 57 51 46 42 39 40 35 35 40 34
248 257 246 233 229 229 228 226 220 219 224 228 230 228 234 232 234 237 230 223 221 217 152 124 106 93 85 71 67 60 58 68 60 58 53 50 47 46 41 38 36 35 28
247 254 265 246 232 230 227 223 222 222 229 233 233 231 234 231 229 230 221 226 220 195 209 214 158 63 56 65 60 53 61 59 55 51 53 55 57 49 43 35 33 35 28
247 250 256 263 254 230 226 222 221 224 230 233 233 232 231 232 228 229 227 226 217 227 221 225 246 267 16 62 72 74 64 54 46 47 51 59 63 57 50 42 37 33 27
246 250 252 267 265 230 226 225 223 227 230 232 232 231 232 233 231 228 227 228 228 226 224 233 240 248 90 78 75 72 59 48 44 46 54 44 57 56 53 46 39 34 27
249 257 252 258 268 255 231 228 224 225 227 229 230 230 232 232 230 228 225 228 227 225 225 232 238 242 243 105 69 56 46 43 44 49 56 45 33 40 43 42 38 32 27
249 253 255 243 247 256 243 238 217 220 222 227 228 228 229 230 229 227 226 226 225 226 225 229 235 246 250 260 335 19 24 37 40 43 41 45 36 23 29 29 28 23 21
246 247 247 248 254 255 259 252 237 212 218 224 227 228 228 227 226 227 227 227 225 224 227 230 230 236 247 254 272 326 357 7 16 17 19 23 18 20 17 14 17 16 14
245 248 246 243 237 240 238 245 224 216 218 225 225 226 228 227 226 228 229 229 224 227 229 229 234 235 240 250 266 294 318 335 345 355 355 356 358 1 5 4 5 5 5
248 251 251 254 248 245 248 245 236 235 227 227 228 228 227 231 231 231 232 228 228 228 230 233 233 243 245 253 267 287 301 311 320 327 335 341 346 348 356 359 0 0 355
247 250 249 240 241 248 249 235 232 238 236 231 232 231 230 233 233 234 233 228 231 231 232 232 235 237 249 256 271 288 298 300 304 310 317 325 330 334 340 345 348 349 350
246 249 248 242 237 238 245 232 217 230 241 236 234 234 233 233 234 235 235 232 232 235 233 233 235 242 257 250 272 280 288 295 295 298 305 310 316 323 329 333 337 338 340
252 258 258 253 244 237 241 224 228 241 238 238 234 234 234 234 236 237 237 236 235 237 236 236 239 247 253 254 268 285 289 293 292 299 301 308 314 318 323 323 327 328 328
265 261 266 265 260 264 229 232 202 252 240 238 235 235 235 234 236 238 239 239 239 241 242 242 245 252 257 257 271 280 295 301 296 300 303 304 309 310 315 318 319 324 323
279 270 269 260 267 271 245 242 239 255 260 238 237 231 234 236 237 238 240 241 242 245 247 247 249 256 263 265 270 278 287 294 301 306 307 306 306 310 316 316 319 317 318
276 277 283 279 257 257 261 250 250 249 264 246 223 229 230 234 238 240 242 245 246 248 249 252 256 260 265 271 273 279 283 290 293 301 305 309 310 310 311 323 318 316 319